Regional Weather Roundup
Issued by NWS

Home | Current Version | Previous Version | Graphics & Text | Print | Product List | Glossary On
Versions: 1 2 3 4 5 6 7 8 9 10 11 12 13 14 15 16 17 18 19 20 21 22 23 24 25 26 27 28 29 30 31 32 33 34 35 36 37 38 39 40 41 42 43 44 45 46 47 48 49 50
000
ASUS43 KOAX 300210
RWRNE

WEATHER ROUNDUP FOR NEBRASKA
NATIONAL WEATHER SERVICE OMAHA NE
900 PM CDT THU SEP 29 2016

NOTES: SATELLITE DATA IS BEING USED TO AUGMENT CLOUD COVER ABOVE
       12000 FEET.
       "FAIR" INDICATES FEW OR NO CLOUDS BELOW 12,000 FEET WITH NO
       SIGNIFICANT WEATHER AND/OR OBSTRUCTIONS TO VISIBILITY.

  * THESE STATIONS DO NOT REPORT WEATHER SUCH AS RAIN...SNOW OR FOG.

NEZ001>004-019>022-054>056-300300-
NEBRASKA PANHANDLE

CITY           SKY/WX    TMP DP  RH WIND       PRES   REMARKS
SCOTTSBLUFF    CLEAR     67  44  43 SE17      30.22R
ALLIANCE       CLEAR     61  42  49 SE13      30.24S
CHADRON        CLEAR     69  41  36 SE21      30.18R
KIMBALL        CLEAR     61  44  54 SE10      30.26R
SIDNEY         CLEAR     64  42  44 SE16      30.26S
$$

NEZ057>060-069>072-079>082-300300-
SOUTHWEST NEBRASKA

CITY           SKY/WX    TMP DP  RH WIND       PRES   REMARKS
NORTH PLATTE   CLEAR     52  41  66 E7        30.31R
IMPERIAL       CLEAR     59  40  49 SE10      30.29R
LEXINGTON      CLEAR     56  43  61 SE6       30.32R
MCCOOK         CLEAR     58  43  57 SE9       30.30R
OGALLALA       CLEAR     61  41  46 SE8       30.28R
$$

NEZ005>010-023>029-035>040-094-300300-
NORTH CENTRAL NEBRASKA

CITY           SKY/WX    TMP DP  RH WIND       PRES   REMARKS
VALENTINE      CLEAR     60  39  45 SE12      30.28R
AINSWORTH      CLEAR     56  44  62 SE9       30.30S
BROKEN BOW     CLEAR     54  44  69 SE7       30.32R
O`NEILL        CLEAR     56  43  61 CALM      30.33S
ORD            CLEAR     51  43  74 CALM      30.32S
THEDFORD       CLEAR     56  41  56 SE7       30.31R
$$

NEZ041-046>049-061>064-073>077-083>087-300300-
SOUTH CENTRAL NEBRASKA

CITY           SKY/WX    TMP DP  RH WIND       PRES   REMARKS
GRAND ISLAND   CLEAR     54  46  74 E3        30.34R
AURORA         CLEAR     53  47  81 E3        30.34S
HASTINGS       CLEAR     55  44  66 E5        30.34S
HEBRON         CLEAR     53  47  79 CALM      30.33R
HOLDREGE       CLEAR     49  41  73 SE6       30.33R
KEARNEY *      CLEAR     55  43  62 SE7       30.33R
YORK           CLEAR     54  46  76 E5        30.34S
$$

NEZ011>018-030>034-042>045-300300-
NORTHEAST NEBRASKA

CITY           SKY/WX    TMP DP  RH WIND       PRES   REMARKS
NORFOLK        CLEAR     54  45  71 SE5       30.34R
ALBION         CLEAR     53  46  75 CALM      30.34R
BLAIR          CLEAR     60  48  65 NE5       30.33R
FREMONT        CLEAR     55  49  80 CALM      30.33S
TEKAMAH        CLEAR     54  47  77 E7        30.33R
WAYNE          CLEAR     49  46  91 CALM      30.35R
$$

NEZ050>053-065>068-078-088>093-300300-
SOUTHEAST NEBRASKA

CITY           SKY/WX    TMP DP  RH WIND       PRES   REMARKS
LINCOLN        CLEAR     57  48  72 CALM      30.34R
OMAHA EPPLEY   CLEAR     61  46  57 E8        30.33R
BEATRICE       CLEAR     57  48  72 NE3       30.33R
FALLS CITY     CLEAR     59  48  67 N3        30.31R
NEBRASKA CITY  CLEAR     60  42  51 CALM      30.32R
PLATTSMOUTH    CLEAR     60  43  52 NE5       30.33R
$$

NEZ044-045-051>053-067-300300-
OMAHA AREA

CITY           SKY/WX    TMP DP  RH WIND       PRES   REMARKS
OMAHA EPPLEY   CLEAR     61  46  57 E8        30.33R
BLAIR          CLEAR     60  48  65 NE5       30.33R
FREMONT        CLEAR     55  49  80 CALM      30.33S
MILLARD        CLEAR     57  52  83 CALM      30.33R
OFFUTT AFB     CLEAR     52  50  93 NE3       30.31S
PLATTSMOUTH    CLEAR     60  43  52 NE5       30.33R
WAHOO          FAIR      55  48  78 N3        30.33S
$$




USA.gov is the U.S. government's official web portal to all federal, state and local government web resources and services.